Flag for Norway Weather past 2 weeks in Rygge, Norway

Now
64 °F

Passing clouds.


Feels Like: 64 °F
Forecast: 60 / 66 °F
Wind: 3 mph from Northwest

Location: Rygge

Current Time: Aug 4, 2015 at 9:07:09 PM

Latest Report: Aug 4, 2015 at 8:00 PM


Visibility: 14 mi

Pressure: 29.90 "Hg

Humidity: 94%

Dew point: 62 °F

Location of RyggeLocation

Historic Weather in Rygge — Graph

°F

Rygge temperature yesterday

Maximum temperature yesterday: 67 °F (at 1:00 PM)
Minimum temperature yesterday: 47 °F (at 4:00 AM)
Average temperature yesterday: 58 °F

Past Weeks' High & Low Weather Summary

 TemperatureHumidityPressure
High72 °F (Jul 30, 4:00 PM)98% (Jul 25, 4:00 AM)30.17 "Hg (Jul 25, 4:00 AM)
Low47 °F (Aug 3, 4:00 AM)39% (Jul 23, 8:00 PM)29.38 "Hg (Jul 26, 9:00 AM)
Average58 °F79%29.73 "Hg
* Reported Jul 20 8:00 PM — Aug 4 7:00 PM, Rygge, Weather by CustomWeather, © 2015

Note: Actual official high and low records may vary slightly from our data, if they occured in-between our weather recording intervals... More about our weather records

Advertising

Rygge weather history for previous 24 hours

 ConditionsComfort  
Time TempWeatherWind HumidityBarometerVisibility
7:00 PM
Tue, Aug 4
66 °FRain showers. Scattered clouds.2 mph88%29.91 "Hg11 mi
6:00 PM68 °FRain showers. Passing clouds.1 mph82%29.93 "Hg19 mi
5:00 PM67 °FPassing clouds.2 mph76%29.94 "Hg25 mi
4:00 PM65 °FScattered clouds.3 mph78%29.96 "Hg22 mi
3:00 PM65 °FPartly sunny.3 mph80%29.98 "Hg25 mi
2:00 PM61 °FCool.1 mph86%30.00 "Hg22 mi
1:00 PM62 °FPartly sunny.2 mph88%30.01 "Hg25 mi
12:00 PM62 °FPartly sunny.2 mph87%29.99 "Hg25 mi
11:00 AM60 °FScattered clouds.2 mph87%29.99 "Hg22 mi
10:00 AM58 °FRain showers. Overcast.3 mph86%30.01 "Hg31 mi
9:00 AM58 °FLight rain. Overcast.2 mph84%30.02 "Hg16 mi
8:00 AM55 °FOvercast.1 mph86%30.03 "Hg31 mi
7:00 AM55 °FOvercast.1 mph86%30.03 "Hg31 mi
6:00 AM53 °FSunny.1 mph88%30.05 "Hg31 mi
5:00 AM53 °FClear.2 mph87%30.05 "Hg31 mi
4:00 AM50 °FClear.2 mph92%30.07 "Hg28 mi
3:00 AM51 °FClear.2 mph91%30.09 "Hg28 mi
2:00 AM53 °FPassing clouds.2 mph88%30.10 "Hg4 mi
1:00 AM53 °FPassing clouds.2 mph90%30.11 "Hg31 mi
12:00 AM53 °FClear.2 mph92%30.12 "Hg22 mi
10:00 PM
Mon, Aug 3
55 °FPassing clouds.1 mph83%30.12 "Hg31 mi
9:00 PM60 °FSunny.1 mph70%30.12 "Hg28 mi
Weather by CustomWeather, © 2015

See weather overviewHow to use our weather pages